EWG7TA LCLK-EDDL

Flight info

Callsign EWG7TA
Flight time N/A
Altitude 34000
Route PHA1W PHA M31 GENOS DCT PEDER DCT EVENO DCT BENEM UN127 RIKSO DCT DISOR/N0447F360 DCT LONTA UL608 DOLEV DCT RENKA DCT TESDU DCT AMETU T852 TINSA T854 DOMUX DOMU1A
Aircraft A319/M-SDE3FGHIRWY/LB1

Departure

Time 2026-05-04 16:52
Airport Larnaca International Airport (LCLK)

Arrival

Time N/A
Airport Düsseldorf Airport (EDDL)
Time Latitude Longitude Altitude Speed Heading
2026-05-04 16:16 34.87030 33.61045 20 ft 0 kts 236°
2026-05-04 16:35 34.87051 33.61082 20 ft 4 kts 239°
2026-05-04 16:35 34.87084 33.61141 21 ft 4 kts 135°
2026-05-04 16:36 34.87094 33.61129 20 ft 1 kts 135°
2026-05-04 16:36 34.87094 33.61128 20 ft 0 kts 135°
2026-05-04 16:42 34.87094 33.61129 20 ft 0 kts 135°
2026-05-04 16:43 34.87034 33.61200 21 ft 12 kts 136°
2026-05-04 16:43 34.86906 33.61355 18 ft 13 kts 134°
2026-05-04 16:43 34.86877 33.61408 18 ft 7 kts 94°
2026-05-04 16:44 34.87136 33.61740 23 ft 17 kts 45°
2026-05-04 16:45 34.87329 33.61977 21 ft 22 kts 45°
2026-05-04 16:46 34.87686 33.62412 19 ft 25 kts 46°
2026-05-04 16:46 34.87925 33.62705 21 ft 24 kts 45°
2026-05-04 16:47 34.88169 33.63004 18 ft 26 kts 44°
2026-05-04 16:47 34.88430 33.63317 17 ft 19 kts 44°
2026-05-04 16:48 34.88405 33.63432 19 ft 0 kts 134°
2026-05-04 16:48 34.88404 33.63434 19 ft 0 kts 134°
2026-05-04 16:49 34.88380 33.63463 20 ft 7 kts 134°
2026-05-04 16:50 34.88276 33.63496 17 ft 10 kts 230°
2026-05-04 16:50 34.88262 33.63476 16 ft 0 kts 227°
2026-05-04 16:51 34.88226 33.63431 17 ft 25 kts 224°
2026-05-04 16:51 34.87962 33.63114 20 ft 84 kts 225°
2026-05-04 16:51 34.86619 33.61462 438 ft 160 kts 228°
2026-05-04 16:52 34.85052 33.59477 1584 ft 172 kts 231°
2026-05-04 16:52 34.84195 33.58339 1851 ft 193 kts 231°
2026-05-04 16:53 34.82280 33.55772 2154 ft 211 kts 231°
2026-05-04 16:53 34.78869 33.51374 3543 ft 256 kts 229°
2026-05-04 16:54 34.77645 33.49828 4546 ft 252 kts 230°
2026-05-04 16:55 34.72699 33.43546 7672 ft 266 kts 230°
2026-05-04 16:55 34.70281 33.40468 9145 ft 269 kts 230°
2026-05-04 16:56 34.68353 33.36652 10478 ft 271 kts 255°
2026-05-04 16:56 34.68219 33.29577 11323 ft 312 kts 274°
2026-05-04 16:57 34.68336 33.26924 11932 ft 316 kts 274°
2026-05-04 16:57 34.68555 33.21539 13173 ft 323 kts 274°
2026-05-04 16:58 34.68873 33.13317 14849 ft 330 kts 274°
2026-05-04 16:58 34.68980 33.10602 15359 ft 333 kts 274°
2026-05-04 16:59 34.69203 33.04921 16427 ft 339 kts 274°
2026-05-04 17:00 34.69619 32.94161 18340 ft 350 kts 274°
2026-05-04 17:00 34.69931 32.85623 19676 ft 357 kts 273°
2026-05-04 17:01 34.70148 32.79584 20604 ft 362 kts 273°
2026-05-04 17:01 34.70378 32.73427 21527 ft 367 kts 273°
2026-05-04 17:02 34.70567 32.68347 22232 ft 371 kts 273°
2026-05-04 17:02 34.70785 32.62093 23086 ft 376 kts 272°
2026-05-04 17:03 34.70894 32.58908 23474 ft 380 kts 272°
2026-05-04 17:03 34.71003 32.55733 23811 ft 382 kts 272°
2026-05-04 17:03 34.71117 32.49239 24493 ft 386 kts 267°
2026-05-04 17:04 34.70725 32.45578 24866 ft 388 kts 263°
2026-05-04 17:04 34.70342 32.39025 25551 ft 390 kts 268°
2026-05-04 17:05 34.70173 32.32460 26287 ft 392 kts 268°
2026-05-04 17:05 34.69897 32.25830 26982 ft 394 kts 267°
2026-05-04 17:06 34.69553 32.19510 27629 ft 398 kts 266°
2026-05-04 17:06 34.69360 32.16141 27983 ft 397 kts 266°
2026-05-04 17:07 34.68977 32.09409 28642 ft 401 kts 266°
2026-05-04 17:07 34.68852 32.07172 28859 ft 401 kts 266°
2026-05-04 17:07 34.68603 32.02687 29126 ft 406 kts 266°
2026-05-04 17:07 34.68466 32.00257 29301 ft 408 kts 267°
2026-05-04 17:08 34.68304 31.97431 29523 ft 409 kts 266°
2026-05-04 17:08 34.68597 31.90526 30077 ft 413 kts 282°
2026-05-04 17:08 34.69487 31.87205 30326 ft 415 kts 292°
2026-05-04 17:09 34.70841 31.84099 30638 ft 417 kts 298°
2026-05-04 17:09 34.72323 31.81087 30990 ft 414 kts 298°
2026-05-04 17:09 34.73745 31.78177 31332 ft 414 kts 298°
2026-05-04 17:10 34.76698 31.72101 31954 ft 413 kts 298°
2026-05-04 17:10 34.81049 31.63106 33033 ft 408 kts 297°
2026-05-04 17:11 34.82486 31.60140 33392 ft 406 kts 297°
2026-05-04 17:11 34.83917 31.57192 33760 ft 404 kts 297°
2026-05-04 17:11 34.86741 31.51370 33921 ft 400 kts 297°
2026-05-04 17:12 34.88152 31.48453 33910 ft 399 kts 297°
2026-05-04 17:13 34.95175 31.33862 33912 ft 399 kts 297°
2026-05-04 17:14 35.00771 31.22228 33902 ft 399 kts 298°
2026-05-04 17:15 35.04969 31.13459 33886 ft 400 kts 298°
2026-05-04 17:16 35.10575 31.01693 33891 ft 402 kts 298°
2026-05-04 17:17 35.16204 30.89869 33864 ft 405 kts 299°
2026-05-04 17:17 35.21448 30.81767 33867 ft 409 kts 311°
2026-05-04 17:18 35.23395 30.79228 33871 ft 409 kts 311°
2026-05-04 17:19 35.31134 30.69070 33875 ft 409 kts 311°
2026-05-04 17:20 35.38915 30.58869 33880 ft 410 kts 311°
2026-05-04 17:20 35.44719 30.51240 33880 ft 410 kts 311°
2026-05-04 17:21 35.52503 30.40978 33880 ft 412 kts 311°
2026-05-04 17:22 35.56404 30.35828 33863 ft 412 kts 311°
2026-05-04 17:23 35.64192 30.25502 33867 ft 413 kts 311°
2026-05-04 17:24 35.70058 30.17721 33874 ft 414 kts 311°
2026-05-04 17:25 35.77877 30.07310 33876 ft 414 kts 311°
2026-05-04 17:26 35.85179 29.96466 33873 ft 414 kts 302°
2026-05-04 17:27 35.92923 29.81435 33874 ft 418 kts 302°
2026-05-04 17:28 35.99151 29.69325 33894 ft 418 kts 302°
2026-05-04 17:29 36.08410 29.51195 33914 ft 417 kts 302°
2026-05-04 17:31 36.16109 29.36073 33944 ft 415 kts 302°
2026-05-04 17:31 36.21753 29.28107 33937 ft 415 kts 319°
2026-05-04 17:32 36.26167 29.23507 33944 ft 416 kts 320°
2026-05-04 17:33 36.34725 29.14506 33952 ft 417 kts 320°
2026-05-04 17:34 36.43366 29.05394 33976 ft 417 kts 320°
2026-05-04 17:35 36.54301 28.93804 33986 ft 417 kts 320°
2026-05-04 17:36 36.58730 28.89106 33980 ft 418 kts 320°
2026-05-04 17:36 36.63117 28.84454 33980 ft 419 kts 320°
2026-05-04 17:37 36.67555 28.79731 33982 ft 420 kts 320°
2026-05-04 17:37 36.71997 28.75004 33986 ft 420 kts 320°
2026-05-04 17:38 36.76338 28.70415 33985 ft 420 kts 320°
2026-05-04 17:38 36.80768 28.65732 33981 ft 421 kts 321°
2026-05-04 17:39 36.87452 28.58621 34013 ft 420 kts 321°
2026-05-04 17:39 36.91609 28.54186 34019 ft 419 kts 321°
2026-05-04 17:40 36.96006 28.49491 34022 ft 419 kts 321°
2026-05-04 17:40 36.99871 28.45354 34023 ft 418 kts 321°
2026-05-04 17:41 37.04164 28.40763 34025 ft 418 kts 321°
2026-05-04 17:41 37.08581 28.36034 34005 ft 418 kts 321°
2026-05-04 17:42 37.12592 28.31697 34015 ft 418 kts 321°
2026-05-04 17:42 37.16948 28.26955 34022 ft 417 kts 321°
2026-05-04 17:43 37.21339 28.22207 34045 ft 416 kts 321°
2026-05-04 17:43 37.25717 28.17495 34056 ft 415 kts 321°
2026-05-04 17:44 37.30101 28.12764 34044 ft 415 kts 321°
2026-05-04 17:44 37.34432 28.08062 34054 ft 414 kts 321°
2026-05-04 17:45 37.38774 28.03326 34025 ft 415 kts 321°
2026-05-04 17:45 37.43138 27.98546 34024 ft 417 kts 321°
2026-05-04 17:46 37.47516 27.93731 34025 ft 418 kts 321°
2026-05-04 17:46 37.51864 27.88958 34034 ft 418 kts 321°
2026-05-04 17:47 37.56064 27.84360 34038 ft 419 kts 321°
2026-05-04 17:47 37.60463 27.79528 34036 ft 419 kts 321°
2026-05-04 17:48 37.64858 27.74693 34034 ft 420 kts 321°
2026-05-04 17:48 37.69202 27.69892 34049 ft 420 kts 321°
2026-05-04 17:49 37.73481 27.65159 34049 ft 420 kts 321°
2026-05-04 17:49 37.77882 27.60274 34038 ft 422 kts 321°
2026-05-04 17:50 37.82298 27.55368 34037 ft 423 kts 321°
2026-05-04 17:50 37.86675 27.50512 34036 ft 423 kts 321°
2026-05-04 17:51 37.91104 27.45602 34028 ft 423 kts 322°
2026-05-04 17:51 37.95472 27.40815 34057 ft 422 kts 322°
2026-05-04 17:52 37.99852 27.36028 34066 ft 421 kts 322°
2026-05-04 17:52 38.04274 27.31164 34069 ft 421 kts 323°
2026-05-04 17:53 38.08263 27.26773 34056 ft 421 kts 323°
2026-05-04 17:53 38.12648 27.21927 34054 ft 421 kts 323°
2026-05-04 17:54 38.16940 27.17172 34019 ft 421 kts 323°
2026-05-04 17:54 38.21358 27.12287 34029 ft 421 kts 323°
2026-05-04 17:55 38.24513 27.08789 34034 ft 421 kts 322°
2026-05-04 17:55 38.28936 27.03867 34038 ft 421 kts 322°
2026-05-04 17:56 38.33371 26.98928 34231 ft 427 kts 323°
2026-05-04 17:56 38.35626 26.96437 34382 ft 430 kts 323°
2026-05-04 17:56 38.37297 26.94595 34544 ft 430 kts 323°
2026-05-04 17:57 38.39559 26.92108 34795 ft 429 kts 323°
2026-05-04 17:57 38.41810 26.89634 35056 ft 429 kts 323°
2026-05-04 17:57 38.44004 26.87211 35316 ft 428 kts 322°
2026-05-04 17:57 38.45878 26.85133 35510 ft 427 kts 322°
2026-05-04 17:58 38.47775 26.83028 35702 ft 427 kts 322°
2026-05-04 17:58 38.50002 26.80562 35948 ft 426 kts 322°
2026-05-04 17:58 38.52212 26.78111 36055 ft 425 kts 322°
2026-05-04 17:58 38.54442 26.75636 36072 ft 425 kts 322°
2026-05-04 17:59 38.58059 26.71616 36069 ft 424 kts 321°
2026-05-04 18:00 38.64061 26.64924 36069 ft 424 kts 322°
2026-05-04 18:00 38.68355 26.60147 36083 ft 424 kts 322°
2026-05-04 18:01 38.72625 26.55375 36053 ft 424 kts 321°
2026-05-04 18:01 38.76951 26.50521 36070 ft 425 kts 321°
2026-05-04 18:02 38.83525 26.43048 36071 ft 426 kts 316°
2026-05-04 18:02 38.87315 26.37634 36085 ft 427 kts 314°
2026-05-04 18:03 38.91252 26.31971 36085 ft 427 kts 314°
2026-05-04 18:03 38.95188 26.26291 36085 ft 427 kts 314°
2026-05-04 18:04 38.99132 26.20592 36079 ft 426 kts 314°
2026-05-04 18:05 39.04966 26.12153 36085 ft 426 kts 314°
2026-05-04 18:05 39.08900 26.06446 36087 ft 426 kts 314°
2026-05-04 18:06 39.14790 25.97869 36084 ft 426 kts 314°
2026-05-04 18:06 39.18689 25.92176 36073 ft 426 kts 313°
2026-05-04 18:07 39.22598 25.86441 36089 ft 426 kts 314°